Location: Владивосток
(43.1151°N, 131.8856°E)
Time: 15:32:41
(UTC+10:00)

AO-91 - Visible Passes

Search period start: 16 April 2024 00:00
Search period end: 26 April 2024 00:00
Orbit: 442 x 743 km, 97.6° (Epoch: 15 April)

Date Brightness Start Highest point End Pass type
(mag) Time Alt. Az. Time Alt. Az. Time Alt. Az.
16 Apr ? 22:57:34 10° NNE 22:57:57 13° NNE 22:57:57 13° NNE visible
17 Apr ? 23:06:20 10° N 23:06:52 14° N 23:06:52 14° N visible
18 Apr ? 23:15:06 10° N 23:15:46 15° N 23:15:46 15° N visible
19 Apr ? 23:23:54 10° N 23:24:40 15° N 23:24:40 15° N visible
20 Apr ? 23:32:42 10° N 23:33:32 15° NNW 23:33:32 15° NNW visible
21 Apr ? 23:41:33 10° NNW 23:42:23 15° NNW 23:42:23 15° NNW visible
22 Apr ? 22:14:36 10° NE 22:14:37 10° NE 22:14:37 10° NE visible
22 Apr ? 23:50:26 10° NNW 23:51:13 14° NNW 23:51:13 14° NNW visible
23 Apr ? 22:22:59 10° NE 22:23:27 13° NE 22:23:27 13° NE visible
23 Apr ? 23:59:24 10° NNW 00:00:02 12° NW 00:00:02 12° NW visible
24 Apr ? 22:31:25 10° NNE 22:32:15 16° NE 22:32:15 16° NE visible
25 Apr ? 00:08:32 10° NW 00:08:50 11° NW 00:08:50 11° NW visible
25 Apr ? 22:39:52 10° NNE 22:41:02 20° NNE 22:41:02 20° NNE visible
